SL-6 R/B(2), 10089

Orbit data source: Space-Track

SL-6 R/B(2), 10089 is space debris in HEO originally from a launch on Thu, 16 Jun 1977 UTC launched from the Plesetsk Missile And Space Complex (PKMTR). Debris objects in space refer to the collection of defunct objects orbiting the Earth. Examples of debris include non-operational satellites, rocket bodies, and fragments generated from explosions, collisions, or faulty payload assembly.

Loading next visibility...
Identifier
10089, 1977-047D
Orbit
HEO
Country
Flag of CISCIS
Related business
Manufacturer
NPO Energiya
Mission
Spacecraft
Bus & Motor
BLOK-L, Unknown motor
Mass
~1,000 kg wet, ~1,000 kg dry
Launch date (UTC)
1977-06-16 (49 years ago)
Launch vehicle
Unknown
Launch site
Plesetsk Missile And Space Complex (PKMTR)
Object type
Payload
Rocket body
Debris
Shape & HBR
Unknown
Radar Cross Section
Large (>1 m²)

Expand to show TLE details & history
Last TLE update: 5 days ago

TLE from 5 days ago
0 SL-6 R/B(2)
1 10089U 77047D   26168.81703499 -.00000059  00000-0  00000-0 0  9992
2 10089  66.8830  96.0427 5709616 302.2078  14.7821  1.99308841260469
Epoch: 2026-06-17T19:36Z
TLE epoch observation values (Epoch: 2026-06-17T19:36:31.823Z)
Latitude
0.00012°
Longitude
-104.1688°
Altitude
7,416.629 km
Speed
6.546 km/s
True Right ascension
06h 24m 07s
True Declination
0° 00' 00"
Sunlit
Object was in daylight at epoch
Visualization orbit readout
Latitude
Unknown
Longitude
Unknown
Altitude
Unknown
Speed
Unknown
Apparent Right ascension
Unknown
Apparent Declination
Unknown
Sunlit
N/A
Visualization observer readout
Local Sidereal Time
23:07:56
Azimuth
Unknown
Elevation
Unknown
Doppler factor
Unknown
Orbital elements
Apogee altitude
35,520.855 km
Perigee altitude
5,064.712 km
Semi-major axis
26,670.92 km
Eccentricity
0.57096
Inclination
66.883°
RAAN
96.0427°
Arg. of periapsis
302.2078°
True anomaly
57.86913°
Mean anomaly
14.7821°
Eccentric anomaly
32.22795°
Mean motion
0.49829 °/min
Orbital period
722.46 mins
BSTAR
0
Loading maneuver chart data...
Computing Atmospheric mass density...
Loading historical data...
Loading historical data...
Loading historical data...
Loading historical data...
Loading historical data...
Loading historical data...
Loading historical data...

Documentation

Showing up to 5 results
|